STARLINK-32391, 61855

Orbit data source: Space-Track

STARLINK-32391, 61855 is a payload satellite owned by SpaceX/Seattle (US) in LEO that was launched on Thu, 07 Nov 2024 UTC via an FALCON 9 launch vehicle from the Air Force Eastern Test Range (AFETR). Payloads include a variety of satellites, spacecraft, and rockets equipped with specific instruments for various scientific and technological missions. These include communications satellites like Starlink; space stations such as the ISS; scientific satellites like the Hubble; Earth observation satellites from companies like Planet Labs, Umbra, and HawkEye 360; GPS; miniature CubeSats for education and research; and military/defense satellites.

Loading next visibility...
STARLINK-32391 details
Identifier
61855, 2024-202L
Orbit
LEO
Last TLE update9 hours ago
Origin
Flag of USSpaceX/Seattle (US)
ManufacturerSpaceX/Seattle
MissionOperational spacecraft
Bus & MotorSTARLINK V2M, Unknown motor
Mass730 kg wet, ~700 kg dry
Launch date (UTC)
2024-11-07 (2 months ago)
Launch vehicle
FALCON 9
Launch site
Air Force Eastern Test Range (AFETR)
Object type
Payload
Rocket body
Debris
Shape & HBRUnknown
Radar Cross SectionLarge (>1 m²)

Expand to show TLE details & history

TLE from 9 hours ago
0 STARLINK-32391
1 61855U 24202L   24361.58615980  .00022535  00000-0  54491-3 0  9996
2 61855  42.9977 200.9715 0001527 266.7919  93.2763 15.40711706  8228
Epoch: 2024-12-26T14:04Z
Definitive object data (Epoch: 2024-12-26T14:04:04.206Z)
Latitude-0.00001°
Longitude-105.60947°
Altitude443.841 km
Speed7.648 km/s
True Right ascension13h 23m 53s
True Declination0° 00' 00"
Sunlit
Object was in daylight at TLE epoch
Visualization TLE readout
Latitude-41.195°
Longitude-176.76064°
Altitude455.487 km
Speed7.64 km/s
Apparent Right ascension09h 32m 20s
Apparent Declination-41° 12' 03"
Sunlit
Object is in daylight
Visualization observer readout
Local Sidereal Time22:28:09
Azimuth101.425° ESE
Elevation-79.331°
Doppler factor1
Orbital elements
Apogee altitude447.006 km
Perigee altitude444.922 km
Semi-major axis6,824.101 km
Eccentricity0.0001527
Inclination42.9977°
RAAN200.9715°
Arg. of periapsis266.7919°
True anomaly93.29377°
Mean anomaly93.2763°
Eccentric anomaly93.28503°
Mean motion3.85013 °/min
BSTAR0.00054491
Orbital period93.5 mins
Loading maneuver chart data...
Loading historical data...
Loading historical data...
Loading historical data...
Loading historical data...
Loading historical data...
Loading historical data...
Loading historical data...

STARLINK-32391 Visibility forecast

Observer location: undefined°, undefined

Span
Click to sort rows by Start time (UTC) header in descending order
Start Az.
Max El. time (UTC)
Max El. Az.
Max El.
End time (UTC)
End Az.
5 mins2024-12-27 16:43:54.073Z216.71° SW2024-12-27 16:46:54.073Z130.814° SE31.142°2024-12-27 16:48:54.073Z87.623° E
5 mins2024-12-27 18:22:54.073Z276.718° WNW2024-12-27 18:24:54.073Z29.539° NE39.379°2024-12-27 18:27:54.073Z70.406° E
5 mins2024-12-27 20:00:54.073Z298.112° NW2024-12-27 20:02:54.073Z16.261° NNE38.233°2024-12-27 20:05:54.073Z83.147° E
5 mins2024-12-27 21:38:54.073Z278.92° WNW2024-12-27 21:40:54.073Z204.039° SW41.761°2024-12-27 21:43:54.073Z123.256° SE
|